YAOGAN-30 J

导读 | 星芒AI

遥感三十号J卫星是中国研制的一颗遥感卫星,主要用于科学实验和国土资源普查等领域。该卫星属于遥感三十号系列,具备高分辨率成像能力,能够获取地球表面的详细图像数据,为农业、环境监测、城市规划等提供重要支持。卫星采用先进的遥感技术和稳定的运行平台,具有较强的适应性和可靠性。其发射和运行体现了中国在遥感卫星技术方面的持续发展和应用拓展。

基本信息
目录编号:
43083
目录名称:
YAOGAN-30 J
国际标识:
2017-085C
轨道中心:
EARTH
卫星名称:
YAOGAN-30 J
卫星全名:
--
卫星状态:
在轨 (已飞行2865 天)
发射日期:
2017-12-25 UTC
国别 :
中国 (CN)
星等 :
--
轨道信息
数据来源 国际轨道数据 AOE轨道数据
星历时间 2025-10-29T00:17:29+0800
14小时前
查看轨道信息
2025-10-29T08:00:00+0800
6小时前
查看轨道信息
半长轴 6941.94km 6941.946km
偏心率 0.0006247 0.0006292
轨道倾角 34.994° 34.994°
近地点辐角 280.412° 282.442°
升交点赤经 120.036° 118.079°
平近点角 79.589° 15.938°
近地点 559.468km 559.443km
远地点 568.142km 568.179km
周期 95.936分钟 95.936分钟
每日圈数 15.01003 15.01001
详细信息
使用方式:
暂无
2D轨道图
3D轨道图
轨道高度分析图
轨道倾角分析图
轨道综合分析图
查看轨道综合分析图